[[{"header":{"parameterUnit":"m.s-1","parameterCategory":1,"la1":30.2991,"la2":30.254,"lo1":-89.0895,"lo2":-89.0444,"dy":0.0017,"dx":0.0017,"nx":28,"ny":28,"refTime":"2025-04-13T21:00:00:Z","depth":0,"parameterNumber":2,"parameterNumberName":"U-component_of_WINDS"},"data":[0,0,0,0,0,0,0,0,0,0,0,0,0,0,0,0,0,0,0,0,0,0,0,0,0,0,0,0,0,0,0,0,0,0,0,0,0,0,0,0,0,0,0,0,0,0,0,0,0,0,0,0,0,0,0,0,0,0,4.7699,4.77,0,4.779,4.7791,4.7792,4.7745,4.7743,4.774,4.7738,4.7829,4.7834,4.7839,0,0,0,0,0,0,0,0,0,0,0,0,0,4.7483,4.7487,4.7699,4.77,4.7701,4.779,4.7791,4.7792,4.7746,4.7743,4.774,4.7737,4.7828,4.7833,4.7839,0,0,0,0,0,0,0,0,0,0,0,0,0,4.7576,4.7488,4.7699,4.7689,4.7689,4.779,4.7791,4.7793,4.7746,4.7742,4.7739,4.7735,4.7826,4.7833,4.784,4.7956,0,0,4.7861,4.7864,0,0,0,0,0,0,0,0,4.757,4.7583,4.7689,4.769,4.769,4.7753,4.7748,4.7847,4.7747,4.7724,4.7738,4.7734,4.7807,4.7815,4.784,4.796,4.7964,4.7862,4.7866,4.7869,4.7871,0,0,0,0,0,0,0,4.7564,4.7579,4.7735,4.7691,4.7691,4.7679,4.7688,4.7767,4.7785,4.7726,4.7723,4.7734,4.7806,4.7833,4.7842,4.7965,4.7862,4.7868,4.7872,4.7875,4.8184,4.8187,0,0,0,0,0,0,4.7558,4.7574,4.7732,4.7738,4.762,4.7686,4.7696,4.7736,4.7784,4.7787,4.7737,4.7732,4.7823,4.7834,4.7845,4.7982,4.7869,4.7876,4.788,4.818,4.8184,4.8189,0,0,0,0,0,0,4.7554,4.7573,4.7728,4.7655,4.7674,4.7693,4.7739,4.774,4.7767,4.7792,4.7795,4.7762,4.7821,4.7835,4.7928,4.7985,4.7879,4.7885,4.8175,4.8181,4.8187,4.8259,0,0,0,0,0,0,4.7548,4.7572,4.7616,4.7657,4.7678,4.7811,4.7742,4.7744,4.7779,4.7773,4.7816,4.782,4.7819,4.7918,4.7935,4.7993,4.7891,4.817,4.8178,4.8185,4.8252,4.8267,4.828,0,0,0,0,0,4.754,4.7633,4.7619,4.7638,4.7735,4.7815,4.7827,4.7824,4.7784,4.7829,4.7845,4.7818,4.7977,4.7928,4.7947,4.8007,4.8166,4.8175,4.8184,4.8245,4.8264,4.8279,0,0,0,0,0,0,4.7598,4.7638,4.7623,4.7731,4.777,4.7806,4.7862,4.7844,4.7895,4.7887,4.7881,4.7891,4.7988,4.8007,4.7953,4.8121,4.8065,4.8078,4.8105,4.8123,4.8137,4.8129,4.7897,0,0,0,0,0,4.7623,4.7685,4.7717,4.781,4.783,4.7843,4.7878,4.7873,4.7913,4.7928,4.7951,4.799,4.8049,4.8087,4.8142,4.8255,4.8263,4.8306,4.832,4.8331,4.8342,4.8402,4.842,4.8218,4.8218,4.8218,0,0,4.7676,4.7706,4.7745,4.7822,4.7851,4.7915,4.7857,4.7927,4.7974,4.7939,4.8028,4.8047,4.809,4.8193,4.8239,4.8212,4.84,4.8343,4.8351,4.8356,4.8413,4.8432,4.8449,4.8224,4.8223,4.8222,0,0,4.7804,4.7834,4.7914,4.7945,4.799,4.7998,4.8018,4.8057,4.8068,4.8158,4.8133,4.8188,4.8289,4.8321,4.835,4.8491,4.8467,4.8509,4.8581,4.864,4.8655,4.8669,4.8718,4.8736,4.852,4.852,4.852,0,4.7864,4.7959,4.7957,4.8029,4.8063,4.8035,4.8115,4.8145,4.8206,4.823,4.8198,4.8324,4.8351,4.8461,4.8495,4.852,4.8541,4.8503,4.8654,4.8668,4.8681,4.8727,4.8745,4.8525,4.8524,4.8524,4.8523,0,4.803,4.8096,4.8155,4.8215,4.8256,4.8332,4.834,4.8382,4.8374,4.8385,4.8476,4.8508,4.8569,4.8595,4.8588,4.8703,4.8685,4.8654,4.8596,4.8705,4.8748,4.8766,4.8531,4.853,4.8528,4.8527,0,0,4.8195,4.8253,4.8275,4.8301,4.835,4.8401,4.8475,4.8535,4.857,4.8614,4.8675,4.8761,4.8733,4.8766,4.8762,4.8814,4.8921,4.8776,4.8777,4.88,4.9049,4.907,4.9091,4.8907,4.8911,4.8913,4.9044,0,4.8325,4.8456,4.8456,4.8576,4.8637,4.8611,4.8676,4.8712,4.8725,4.8778,4.8792,4.8853,4.8812,4.8831,4.8881,4.8898,4.8971,4.8888,4.8962,4.8965,4.895,4.9114,4.9137,4.9259,4.9062,4.9064,4.9067,0,4.8494,4.8543,4.867,4.8709,4.8734,4.8792,4.8847,4.8899,4.8939,4.8945,4.8982,4.897,4.9045,4.8987,4.9089,4.9033,4.9064,4.9077,4.9081,4.9086,4.9021,4.9121,4.9298,4.9315,4.9093,4.9091,4.9089,0,4.86,4.8698,4.8786,4.881,4.8858,4.8899,4.8921,4.8958,4.8994,4.9042,4.9065,4.912,4.915,4.9194,4.9197,4.9155,4.9299,4.9242,4.9304,4.9304,4.9334,4.9332,4.9516,4.9358,4.9358,4.9357,4.9357,0,4.8744,4.8822,4.8834,4.8888,4.8974,4.8973,4.9058,4.9076,4.911,4.9166,4.9148,4.9201,4.9203,4.9257,4.926,4.9343,4.9358,4.9363,4.9363,4.9364,4.9363,4.9382,4.9372,4.9362,4.9361,4.936,4.9359,0,4.8876,4.8887,4.8981,4.902,4.9031,4.9093,4.9125,4.9176,4.9187,4.9259,4.9275,4.9293,4.9356,4.9364,4.9437,4.9439,4.9539,4.953,4.9525,4.9523,4.9584,4.9577,4.9785,4.9812,4.9638,4.964,4.9641,0,4.8966,4.9025,4.907,4.9107,4.9131,4.9191,4.9227,4.9229,4.9268,4.9318,4.9363,4.9424,4.9472,4.9574,4.9593,4.9648,4.964,4.9709,4.9648,4.9646,4.9638,4.9634,4.9639,4.972,4.9722,4.9723,4.9725,0,4.9124,4.9127,4.918,4.9237,4.9281,4.9325,4.9366,4.9397,4.9404,4.9448,4.9512,4.955,4.9625,4.9685,4.974,4.9762,4.9744,4.9744,4.9761,4.9761,4.9755,4.9757,4.9555,4.9739,4.9737,4.9736,4.9735,4.9735,4.9236,4.9287,4.9327,4.9387,4.9419,4.9458,4.9507,4.9525,4.9579,4.964,4.9638,4.9708,4.9747,4.9819,4.9844,4.9899,4.9876,4.9901,4.9907,4.9912,4.9917,4.9748,4.9909,4.9909,4.9908,4.9908,4.9908,0,4.9392,4.9416,4.9472,4.953,4.9577,4.9558,4.9603,4.9643,4.9705,4.9743,4.9792,4.9865,4.9923,4.9947,5.0004,5.0043,5.0036,5.0057,5.0053,5.0058,4.9936,4.9914,5.0062,5.0062,5.0062,5.0062,5.0062,5.0062,4.9478,4.9563,4.957,4.967,4.9694,4.9763,4.979,4.9825,4.9855,4.9938,4.9986,5.0002,5.0034,5.0093,5.0146,5.0151,5.0172,5.0197,5.0198,5.0083,5.0067,5.0052,5.0032,5.0202,5.0202,5.0316,5.0317,5.0318]},{"header":{"parameterUnit":"m.s-1","parameterCategory":1,"la1":30.2991,"la2":30.254,"lo1":-89.0895,"lo2":-89.0444,"dy":0.0017,"dx":0.0017,"nx":28,"ny":28,"refTime":"2025-04-13T21:00:00:Z","depth":0,"parameterNumber":3,"parameterNumberName":"V-component_of_WINDS"},"data":[0,0,0,0,0,0,0,0,0,0,0,0,0,0,0,0,0,0,0,0,0,0,0,0,0,0,0,0,0,0,0,0,0,0,0,0,0,0,0,0,0,0,0,0,0,0,0,0,0,0,0,0,0,0,0,0,0,0,3.025,3.0251,0,3.0348,3.035,3.0351,3.0365,3.0364,3.0363,3.0362,3.0461,3.0464,3.0468,0,0,0,0,0,0,0,0,0,0,0,0,0,3.0071,3.0074,3.025,3.0251,3.0252,3.0348,3.035,3.0351,3.0365,3.0364,3.0362,3.0361,3.046,3.0464,3.0468,0,0,0,0,0,0,0,0,0,0,0,0,0,3.0157,3.0075,3.025,3.0271,3.0274,3.0348,3.035,3.0351,3.0365,3.0364,3.0362,3.0361,3.0458,3.0463,3.0469,3.0528,0,0,3.0485,3.0487,0,0,0,0,0,0,0,0,3.0152,3.0164,3.0267,3.027,3.0273,3.0343,3.0323,3.0411,3.0365,3.033,3.0362,3.036,3.0423,3.0431,3.0452,3.0533,3.0537,3.0485,3.0488,3.049,3.0492,0,0,0,0,0,0,0,3.0146,3.0159,3.0289,3.0268,3.0272,3.0274,3.0285,3.034,3.0383,3.0333,3.0334,3.0346,3.0424,3.0447,3.0455,3.0539,3.0485,3.049,3.0493,3.0495,3.0672,3.0673,0,0,0,0,0,0,3.0137,3.0154,3.0286,3.0292,3.0208,3.0279,3.0291,3.0322,3.0382,3.039,3.0347,3.0346,3.0439,3.0448,3.0458,3.0531,3.049,3.0495,3.0498,3.067,3.0672,3.0674,0,0,0,0,0,0,3.0133,3.0148,3.0282,3.0224,3.0241,3.0283,3.0318,3.0324,3.0347,3.0393,3.04,3.0363,3.0438,3.0451,3.0511,3.0535,3.0498,3.0502,3.0669,3.0671,3.0673,3.0679,0,0,0,0,0,0,3.0128,3.0147,3.0171,3.0224,3.0244,3.0333,3.032,3.0327,3.0357,3.0357,3.041,3.0417,3.0438,3.0503,3.0516,3.0542,3.0507,3.0667,3.067,3.0672,3.0677,3.0681,3.0685,0,0,0,0,0,3.0121,3.0168,3.0172,3.0188,3.0275,3.0335,3.0346,3.037,3.0359,3.0382,3.0411,3.0415,3.053,3.0509,3.0524,3.0551,3.0665,3.0669,3.0672,3.0675,3.068,3.0685,0,0,0,0,0,0,3.0116,3.0175,3.018,3.0246,3.0285,3.0337,3.0368,3.0375,3.0418,3.0416,3.0443,3.0455,3.0513,3.0538,3.0513,3.0612,3.0596,3.0603,3.0593,3.0599,3.0603,3.0596,3.0511,0,0,0,0,0,3.0123,3.0168,3.0217,3.027,3.0289,3.0325,3.0352,3.0367,3.0409,3.0425,3.0459,3.0498,3.0543,3.0572,3.0616,3.068,3.0691,3.0706,3.071,3.0713,3.0719,3.0754,3.0761,3.0686,3.0686,3.0685,0,0,3.0137,3.0175,3.0201,3.027,3.0302,3.0347,3.0339,3.0387,3.0421,3.0432,3.0491,3.0517,3.0563,3.0625,3.0653,3.0647,3.0742,3.0718,3.072,3.0724,3.0758,3.0765,3.0771,3.0688,3.0688,3.0687,0,0,3.0185,3.0219,3.0267,3.0299,3.0348,3.0371,3.0382,3.0433,3.0451,3.051,3.052,3.0559,3.0636,3.0668,3.0695,3.0754,3.0759,3.0768,3.0789,3.0823,3.0829,3.0834,3.0855,3.0862,3.0773,3.0773,3.0773,0,3.0196,3.0266,3.029,3.0338,3.0367,3.038,3.0428,3.0458,3.0518,3.0538,3.053,3.0627,3.0658,3.0728,3.0742,3.0763,3.0776,3.0762,3.0826,3.0832,3.0837,3.0857,3.0865,3.0774,3.0773,3.0773,3.0773,0,3.0276,3.0324,3.0356,3.0415,3.0448,3.0495,3.0526,3.0556,3.0568,3.0592,3.0651,3.069,3.0741,3.0759,3.077,3.0829,3.0824,3.0821,3.0806,3.0844,3.0864,3.0872,3.0775,3.0774,3.0774,3.0774,0,0,3.0326,3.0396,3.0408,3.0434,3.0489,3.0526,3.0573,3.0624,3.0649,3.069,3.073,3.0794,3.0791,3.0821,3.0836,3.0866,3.091,3.0859,3.086,3.0867,3.0976,3.0979,3.0987,3.0913,3.0915,3.0916,3.0972,0,3.038,3.0467,3.0489,3.0562,3.0606,3.0618,3.0659,3.0696,3.072,3.0759,3.0784,3.083,3.0823,3.0841,3.087,3.0898,3.0932,3.0894,3.095,3.0952,3.0938,3.0997,3.1,3.1052,3.098,3.0981,3.0982,0,3.0456,3.0499,3.0576,3.0624,3.0643,3.068,3.0728,3.0766,3.0808,3.0823,3.0856,3.0868,3.0917,3.0899,3.0966,3.094,3.0964,3.0981,3.0983,3.099,3.097,3.1005,3.1069,3.1077,3.0995,3.0994,3.0993,0,3.0484,3.0561,3.0617,3.0639,3.0697,3.0722,3.0747,3.0788,3.0816,3.0858,3.0877,3.0923,3.0948,3.0983,3.1007,3.0992,3.1072,3.1057,3.1085,3.1085,3.1102,3.1101,3.1171,3.1117,3.1117,3.1117,3.1117,0,3.0543,3.059,3.063,3.0665,3.0717,3.0742,3.0793,3.0818,3.0854,3.0892,3.0905,3.0941,3.0971,3.101,3.1029,3.1082,3.1093,3.1106,3.111,3.1105,3.1103,3.1121,3.1118,3.1119,3.1119,3.1118,3.1118,0,3.0584,3.0612,3.0674,3.0723,3.0737,3.0773,3.0815,3.0848,3.0871,3.092,3.0933,3.0969,3.1016,3.1043,3.1103,3.1115,3.1173,3.1176,3.116,3.1162,3.1189,3.1186,3.1273,3.1285,3.1223,3.1224,3.1224,0,3.062,3.0656,3.0709,3.0736,3.0761,3.0805,3.0834,3.086,3.089,3.094,3.0967,3.1015,3.1055,3.1129,3.116,3.1206,3.121,3.1237,3.1216,3.121,3.121,3.1207,3.1211,3.124,3.1241,3.1241,3.1242,0,3.068,3.0692,3.0735,3.0782,3.0817,3.0855,3.0893,3.0914,3.0946,3.0978,3.1027,3.1058,3.1119,3.1166,3.1213,3.1238,3.1245,3.1248,3.1257,3.1252,3.1241,3.1247,3.1169,3.1246,3.1245,3.1245,3.1245,3.1245,3.0719,3.0752,3.0794,3.0841,3.0872,3.0907,3.094,3.0967,3.1009,3.106,3.1073,3.1123,3.1163,3.1228,3.1254,3.1293,3.1289,3.1302,3.1305,3.1308,3.1309,3.1234,3.1302,3.1302,3.1302,3.1302,3.1302,0,3.0781,3.0808,3.0851,3.0903,3.0939,3.0943,3.0985,3.1015,3.106,3.1097,3.1135,3.1191,3.1236,3.1271,3.1317,3.1342,3.1346,3.1353,3.1352,3.1357,3.131,3.1298,3.1349,3.1349,3.1349,3.1349,3.1349,3.1349,3.0817,3.0872,3.0889,3.0959,3.0986,3.1037,3.106,3.1092,3.1121,3.1183,3.1221,3.1243,3.1279,3.1328,3.1369,3.1378,3.1395,3.1401,3.141,3.1366,3.1361,3.1356,3.1344,3.1405,3.1405,3.1454,3.1455,3.1455]}]]